CAPE
215 697 589 890 1555 1176 86 77 154 147 195 214 332 216 518 765 556 685 602 534 688 621 1052 1420 2106 1723 1681 1744 1981 1813 1790 1819 1821 1687 1585 1386 1551 1651 1605 1595 1571 1452 1210 1180 1170 1422 1348 1532 1691
295 248 358 334 1318 184 146 96 136 179 255 329 289 503 559 620 590 550 671 666 746 890 792 1090 2269 2179 1745 2097 2044 1901 1885 1820 1900 1958 1849 1783 1623 1452 1399 1361 1437 1267 1139 1281 1031 1004 1103 1393 1381
127 68 554 779 515 312 141 87 206 281 460 630 718 666 564 629 611 741 646 920 998 892 1128 2183 2230 2127 2101 2189 2038 2001 1941 1925 1902 1918 1969 1906 1510 1489 1387 1382 1381 1356 1551 1411 1158 970 869 820 1530
236 814 666 238 218 313 146 143 216 399 675 689 716 455 588 663 748 586 724 1000 845 937 1114 2230 2214 2207 2148 2174 2056 2127 2059 2032 1832 2080 1911 1922 1706 1946 1765 1386 1062 896 1507 1782 1493 1123 1208 1386 1738
721 539 107 174 239 112 176 186 288 421 550 667 457 473 694 685 578 703 835 951 929 820 946 1785 2230 2259 2192 2162 2170 2056 2114 2139 2113 2100 2065 1926 1876 1942 1686 1286 1259 1422 1980 1929 1727 1406 1877 2067 1834
1071 942 184 204 300 176 245 235 312 511 630 529 424 541 688 624 705 728 872 1094 1033 1062 931 1578 2313 2385 2393 2096 2123 2136 1967 2207 2008 2099 2046 1892 1881 1800 2090 1686 1608 1722 1795 1973 2093 2030 1272 1648 1753
807 777 202 108 338 532 414 321 411 422 350 323 404 577 546 600 609 604 612 1046 1229 1239 1121 1354 1702 2212 2103 2108 2273 2046 2092 2122 2142 2121 1918 2156 1904 1654 1952 1805 1753 1622 1615 1799 1952 2056 2002 1395 1236
1164 779 328 102 363 539 457 425 443 309 357 232 353 539 444 550 522 612 594 823 1160 1378 1622 1543 2027 1084 1183 1948 2156 2282 2087 1993 2364 1947 1574 1930 1922 1384 1592 2356 1826 1648 1471 1576 1444 1954 2149 1487 1369
533 775 471 44 133 504 518 508 473 398 379 273 417 299 368 404 505 583 701 712 852 1071 1537 1451 1316 1724 2049 1851 2133 2170 2183 2019 1736 1519 1694 1905 1474 1801 1851 2417 1756 1550 1433 1362 1551 1665 2338 1800 1714
629 684 288 120 93 357 346 325 198 226 190 273 307 271 389 445 535 595 712 791 733 664 912 1300 1208 1082 1579 1163 1677 1383 2093 1240 1060 1403 1393 1404 1813 1857 1209 1788 2045 1860 1736 1726 2036 2389 2406 2241 1398
452 551 402 220 30 173 261 230 264 201 235 208 234 380 442 505 549 548 659 699 762 651 467 511 1722 2013 1503 2151 1470 1208 747 998 1759 2115 2327 1692 1636 1627 953 1348 1808 2162 2278 2069 2269 2307 2513 1412 672
426 498 431 176 58 41 215 235 87 149 192 147 305 374 400 398 410 441 525 757 775 397 439 681 1290 2385 2345 1487 1654 1460 562 793 1730 1875 2176 2095 1876 1267 1997 1289 897 2395 1222 1671 1297 1464 1594 924 493
499 561 411 144 40 113 104 387 250 180 47 182 250 274 278 265 260 286 388 733 640 498 514 705 1057 2082 1893 2081 1697 1749 571 1214 945 1406 2046 1654 1389 1958 2278 2231 1914 1865 1571 1300 1212 1282 1074 643 642
348 549 398 380 283 42 134 198 343 139 42 160 167 156 160 207 201 266 374 562 670 513 587 803 972 2237 1705 2449 1518 1158 865 1431 1924 1200 1505 2200 1501 2478 1562 1421 1940 2434 1446 1559 1314 1463 1295 1436 1032
471 314 490 362 330 96 26 5 150 189 60 56 78 161 236 220 245 352 357 410 554 486 650 792 1026 1283 1551 1431 1282 1872 763 1415 1474 1285 1889 2077 1896 2135 2973 1360 3039 2015 1722 1988 1568 1442 1372 1149 1184
241 298 472 611 374 220 19 2 79 156 155 81 82 166 286 429 302 343 256 426 482 590 692 878 718 886 1328 1189 1751 1877 1630 1770 2227 1150 1353 1996 2092 2214 2879 2790 2019 1821 1976 1410 1215 1119 1190 1177 1224
55 286 267 626 490 114 13 0 56 229 361 135 114 241 153 299 304 452 462 480 453 843 838 797 710 807 942 1423 1578 2594 1953 1652 1984 1691 1686 1990 1728 2219 2912 1825 2275 4218 2090 1371 1101 1009 1292 1497 1167
13 215 329 589 278 94 48 0 77 70 234 215 178 157 200 237 371 348 480 702 510 697 937 880 774 1130 1235 1678 2797 2145 1036 2265 1770 1870 1701 1915 1876 2118 3559 1967 2730 3188 2134 1499 1351 1622 2007 1685 1604
19 128 181 376 307 159 23 54 86 106 125 165 147 203 132 186 374 290 333 612 619 943 1104 1702 1860 1551 1411 1365 1345 1412 1004 1942 2179 2158 1897 2128 1876 2187 2618 1873 2425 2964 2980 3346 2572 2275 2753 1452 1987
25 115 121 115 320 250 192 141 69 65 96 117 157 73 169 191 246 281 430 409 552 1062 1255 1772 1655 1507 1460 1136 2383 1899 1935 980 1563 2131 1896 1769 1647 1874 2100 2861 2473 2187 2697 3339 2749 3165 2360 1178 1617
1 84 79 155 131 116 136 186 94 79 92 87 91 119 129 135 314 318 387 472 592 882 1150 1313 1449 1521 1550 2286 1774 2350 2300 2071 1216 2196 1782 1700 1532 1521 2112 1923 2965 2966 2598 2791 3422 3305 3049 2596 1719
48 16 12 59 111 106 112 109 220 151 102 61 59 55 202 466 161 296 349 320 496 735 801 1130 1419 1502 1382 1921 2085 1679 1304 1552 1167 1410 1824 1833 1595 1691 1742 1963 1923 3071 2262 4136 2926 2866 3829 3905 2715
85 73 39 123 112 163 119 70 101 273 143 65 61 127 81 82 118 195 195 502 401 638 738 816 1607 1546 1431 1596 1764 1830 2021 1573 928 1574 2600 2288 2060 1867 1589 1950 2045 1973 2121 2843 3255 3455 4080 3228 3190
0 23 133 137 152 143 86 34 192 466 239 68 98 145 150 62 157 192 168 437 423 535 586 669 1281 1509 1401 1376 1391 2026 2207 1253 902 1708 1511 1240 1630 1604 1733 1695 2177 2016 2301 2125 2471 2809 3018 3651 3538
0 72 174 136 166 127 99 12 50 142 127 239 152 190 221 278 130 56 203 327 599 600 687 684 1393 1917 1480 1346 1072 1206 1657 1790 1083 1278 1109 1721 871 858 2474 1809 2099 1908 2071 2095 2273 2671 2858 2526 3031
0 88 135 71 106 106 118 116 73 35 101 161 122 90 206 171 117 110 247 245 528 702 637 659 1237 1843 1679 1377 1555 1750 1341 1024 1089 1413 919 739 1024 770 3345 1947 1584 1593 1713 1848 1880 1907 1909 2851 2150
61 2 53 53 137 170 144 91 110 45 147 157 118 160 176 179 243 74 109 132 400 759 735 737 1160 1648 1593 1274 2022 1346 1355 1299 1368 2371 1733 996 1926 1667 1317 1092 1429 1550 1724 1888 2030 1765 2067 1704 2290
27 155 101 106 224 194 45 103 87 92 171 147 62 73 281 328 272 121 204 477 448 451 582 747 990 1559 1525 1227 1314 1308 1230 1283 1423 1707 1545 1909 2328 1014 1746 1668 1146 1305 1558 1801 2354 2370 2557 2036 1750
56 30 270 227 207 211 195 68 141 170 341 232 42 41 72 346 174 268 227 293 877 590 832 715 982 1376 1440 1308 1310 1564 1318 1271 1292 1146 1247 1306 1581 1669 1464 1830 1612 1716 1589 1776 2351 2598 2359 2214 1924
48 74 327 291 433 145 23 57 727 659 537 324 86 59 148 405 232 177 244 272 312 992 1139 857 988 1193 1403 1294 1507 1220 1286 1321 1190 1297 1247 1323 1928 1891 1848 1961 1985 1513 1673 1827 1956 1825 1369 1578 1812
CIN
-101 -56 -36 -37 -0 -29 -0 -0 -0 -0 -0 -0 -0 -0 -7 -3 -11 -0 -0 -1 -0 -0 -1 -0 -0 -3 -0 -0 -0 -0 -0 -0 -0 -0 -0 -0 -0 -0 -0 -0 -0 -0 -1 -0 -1 -1 -0 -0 -0
-59 -45 -84 -111 -7 -1 -0 -0 -1 -0 -0 -0 -0 -0 -0 -3 -7 -1 -0 -0 -0 -5 -0 -0 -0 -0 -0 -0 -0 -0 -0 -0 -0 -0 -0 -0 -0 -1 -1 -0 -0 -1 -3 -0 -0 -5 -1 -1 -6
-91 -176 -43 -49 -3 -59 -0 -0 -0 -0 -0 -0 -0 -0 -0 -0 -0 -0 -0 -0 -3 -2 -1 -0 -0 -0 -0 -0 -0 -0 -0 -0 -0 -0 -0 -0 -2 -1 -2 -1 -0 -0 -0 -0 -1 -5 -20 -6 -2
-25 -52 -63 -36 -47 -0 -0 -0 -0 -0 -0 -1 -0 -8 -0 -0 -0 -0 -0 -1 -1 -1 -0 -0 -0 -0 -0 -0 -0 -0 -0 -0 -0 -0 -0 -0 -1 -0 -0 -0 -5 -8 -1 -0 -3 -14 -9 -2 -1
-0 -3 -25 -7 -1 -11 -1 -0 -0 -0 -0 -0 -0 -0 -0 -0 -2 -0 -0 -1 -38 -1 -0 -0 -0 -0 -0 -0 -0 -0 -0 -0 -0 -0 -0 -0 -0 -0 -0 -3 -6 -1 -0 -0 -0 -0 -0 -0 -0
-12 -0 -1 -3 -0 -16 -0 -1 -1 -0 -0 -0 -3 -0 -0 -0 -0 -0 -0 -6 -6 -0 -0 -0 -0 -0 -0 -0 -0 -0 -0 -0 -0 -0 -0 -0 -0 -0 -0 -0 -0 -0 -0 -0 -0 -0 -1 -0 -0
-0 -0 -11 -10 -0 -0 -0 -0 -2 -3 -0 -1 -1 -0 -0 -0 -0 -0 -0 -0 -3 -7 -0 -0 -0 -0 -0 -0 -0 -0 -0 -0 -0 -0 -0 -0 -0 -0 -0 -3 -6 -12 -14 -9 -5 -0 -0 -10 -31
-0 -0 -0 -13 -0 -0 -0 -0 -1 -0 -0 -1 -0 -0 -0 -0 -0 -0 -0 -0 -0 -0 -6 -0 -0 -3 -0 -0 -0 -0 -0 -0 -0 -4 -18 -15 -11 -17 -17 -10 -15 -18 -21 -21 -20 -10 -3 -33 -40
-19 -9 -0 -50 -12 -0 -0 -0 -0 -8 -0 -0 -0 -1 -0 -1 -0 -0 -0 -0 -0 -0 -0 -11 -12 -12 -8 -0 -0 -0 -6 -10 -15 -29 -33 -32 -1 -0 -3 -14 -20 -29 -31 -33 -28 -33 -24 -47 -51
-2 -2 -13 -9 -55 -0 -5 -0 -2 -0 -0 -0 -1 -0 -0 -0 -0 -0 -0 -0 -0 -0 -0 -2 -14 -0 -3 -0 -0 -0 -2 -0 -0 -0 -0 -0 -12 -5 -1 -15 -30 -39 -46 -44 -45 -51 -46 -48 -15
-0 -0 -0 -10 -88 -40 -7 -0 -1 -0 -0 -0 -0 -0 -0 -0 -0 -0 -0 -0 -3 -0 -0 -0 -1 -8 -18 -6 -0 -0 -0 -0 -0 -0 -0 -0 -0 -3 -0 -17 -17 -23 -53 -22 -42 -29 -12 -1 -0
-1 -1 -0 -24 -45 -22 -9 -3 -2 -1 -1 -0 -0 -0 -0 -0 -0 -0 -0 -0 -0 -0 -0 -0 -1 -5 -3 -25 -12 -13 -0 -0 -1 -0 -1 -3 -8 -0 -11 -2 -12 -3 -0 -0 -0 -0 -1 -0 -16
-0 -0 -0 -4 -22 -1 -19 -10 -4 -1 -0 -0 -0 -0 -0 -0 -1 -1 -0 -0 -0 -0 -0 -0 -0 -11 -1 -3 -1 -2 -2 -0 -0 -0 -4 -64 -0 -0 -4 -7 -4 -16 -67 -0 -0 -0 -0 -10 -33
-0 -0 -2 -0 -0 -18 -11 -24 -8 -1 -0 -0 -0 -0 -0 -0 -0 -0 -0 -0 -0 -0 -0 -0 -0 -0 -0 -0 -0 -0 -0 -4 -7 -4 -0 -4 -1 -19 -2 -113 -23 -3 -12 -1 -1 -0 -0 -0 -24
-0 -0 -0 -3 -0 -22 -37 -5 -14 -41 -0 -1 -0 -1 -1 -0 -1 -1 -0 -0 -0 -0 -0 -0 -0 -0 -0 -0 -0 -4 -0 -4 -1 -2 -0 -0 -0 -6 -2 -41 -7 -0 -3 -7 -1 -0 -2 -0 -6
-0 -0 -1 -0 -6 -0 -0 -2 -60 -16 -0 -0 -3 -0 -1 -0 -1 -2 -0 -0 -0 -0 -0 -1 -0 -0 -0 -0 -0 -12 -10 -2 -9 -0 -0 -0 -6 -1 -2 -0 -31 -0 -0 -0 -0 -0 -0 -0 -0
-7 -20 -25 -0 -0 -28 -2 -0 -17 -15 -2 -3 -0 -0 -0 -0 -1 -0 -0 -0 -0 -0 -0 -0 -0 -0 -0 -0 -0 -16 -4 -20 -9 -8 -18 -0 -2 -5 -5 -28 -2 -16 -1 -1 -0 -0 -0 -0 -0
-13 -0 -1 -3 -18 -53 -39 -0 -15 -45 -16 -26 -1 -0 -0 -0 -1 -0 -0 -1 -0 -1 -0 -0 -0 -0 -0 -0 -4 -18 -1 -1 -4 -18 -8 -0 -0 -0 -9 -0 -1 -37 -32 -0 -0 -1 -0 -0 -0
-146 -14 -11 -0 -18 -4 -32 -25 -22 -17 -19 -30 -41 -28 -0 -1 -1 -2 -0 -1 -0 -3 -3 -1 -2 -0 -0 -0 -0 -4 -0 -0 -0 -36 -0 -0 -0 -0 -8 -0 -0 -32 -0 -1 -3 -2 -2 -0 -3
-0 -0 -2 -12 -4 -0 -4 -1 -14 -70 -68 -53 -19 -21 -10 -0 -47 -5 -0 -0 -0 -10 -1 -0 -0 -0 -0 -0 -10 -12 -19 -0 -18 -14 -0 -0 -0 -1 -6 -10 -0 -105 -1 -0 -1 -1 -1 -0 -0
-0 -1 -4 -2 -1 -0 -8 -1 -4 -21 -91 -95 -65 -23 -80 -149 -67 -7 -0 -0 -1 -10 -7 -0 -0 -0 -0 -2 -4 -10 -45 -11 -0 -1 -0 -0 -0 -0 -0 -8 -4 -4 -55 -0 -0 -1 -5 -1 -3
-0 -3 -5 -0 -0 -36 -1 -4 -1 -10 -17 -27 -64 -78 -19 -10 -36 -2 -0 -1 -3 -5 -2 -0 -0 -0 -0 -0 -22 -1 -0 -0 -1 -0 -2 -0 -0 -0 -0 -0 -0 -9 -34 -3 -1 -2 -6 -9 -3
-0 -4 -1 -0 -0 -0 -20 -0 -22 -1 -2 -40 -31 -2 -18 -88 -3 -1 -0 -0 -1 -7 -7 -0 -1 -0 -0 -0 -12 -0 -1 -4 -0 -23 -8 -2 -0 -0 -0 -0 -0 -6 -9 -6 -4 -0 -3 -2 -7
-0 -0 -0 -0 -0 -0 -5 -0 -6 -1 -9 -71 -46 -17 -3 -34 -1 -1 -12 -0 -0 -0 -5 -1 -1 -0 -0 -0 -0 -0 -0 -56 -0 -4 -0 -0 -0 -0 -0 -0 -0 -1 -1 -2 -0 -0 -1 -1 -2
-0 -0 -0 -0 -0 -2 -7 -3 -5 -0 -1 -26 -58 -39 -2 -4 -24 -12 -6 -0 -5 -0 -3 -4 -0 -0 -0 -0 -0 -0 -0 -0 -0 -0 -0 -0 -0 -0 -5 -0 -0 -0 -4 -0 -1 -0 -0 -0 -0
-0 -0 -0 -30 -0 -32 -0 -0 -54 -0 -1 -12 -39 -44 -13 -0 -0 -9 -19 -7 -2 -1 -0 -0 -0 -0 -0 -0 -0 -0 -0 -0 -1 -0 -1 -0 -0 -0 -2 -0 -0 -0 -0 -0 -0 -0 -1 -0 -0
-1 -1 -0 -2 -1 -2 -2 -0 -0 -1 -1 -25 -16 -15 -16 -10 -2 -8 -1 -145 -0 -1 -0 -0 -0 -0 -0 -0 -0 -0 -0 -0 -0 -1 -3 -0 -0 -5 -3 -1 -0 -0 -0 -0 -0 -0 -0 -0 -0
-3 -32 -1 -0 -8 -1 -9 -0 -21 -0 -0 -5 -6 -0 -1 -17 -18 -1 -0 -1 -16 -0 -0 -0 -0 -0 -0 -0 -0 -0 -0 -0 -2 -4 -1 -4 -12 -2 -3 -0 -0 -0 -0 -0 -0 -0 -0 -3 -0
-4 -0 -0 -3 -4 -17 -0 -5 -0 -0 -0 -0 -33 -63 -24 -1 -10 -0 -4 -6 -19 -8 -2 -0 -0 -0 -0 -0 -0 -0 -0 -0 -0 -0 -0 -1 -0 -0 -0 -0 -0 -0 -0 -0 -0 -0 -5 -0 -0
-127 -165 -5 -0 -0 -13 -112 -16 -4 -9 -15 -5 -43 -73 -9 -34 -0 -6 -5 -0 -19 -8 -5 -0 -0 -0 -0 -0 -0 -1 -0 -0 -0 -0 -0 -0 -0 -0 -0 -0 -0 -0 -0 -0 -0 -0 -0 -0 -0
Wind_Speed
19 18 13 12 16 10 nan nan 13 8 10 12 11 16 17 16 9 7 6 7 9 8 8 3 7 7 5 5 6 10 10 13 13 13 13 14 17 20 17 16 17 17 19 21 20 18 12 14 11
23 6 6 10 13 4 8 nan 10 14 14 10 5 10 18 19 16 13 8 6 9 6 5 2 5 4 5 4 6 6 10 12 12 12 12 13 15 17 20 18 19 21 21 23 26 26 20 16 15
13 nan 12 12 16 21 9 nan 13 15 7 12 6 17 10 14 7 11 8 6 11 7 8 3 1 1 1 3 3 5 5 7 8 10 13 16 17 19 21 21 24 24 24 26 28 28 20 6 11
14 4 3 17 27 13 13 14 14 14 14 14 11 12 18 10 12 11 7 9 5 11 9 5 3 3 3 1 1 2 3 5 8 9 11 13 15 17 19 21 22 22 22 26 27 3 9 12 5
12 5 5 7 8 14 11 12 15 8 9 9 11 17 13 10 12 9 5 9 4 8 7 6 5 5 5 4 3 3 3 5 6 7 10 11 15 16 15 10 10 19 22 20 7 4 5 6 7
6 16 2 5 12 9 11 10 9 12 13 12 17 15 16 11 8 5 4 10 7 5 12 8 6 6 8 7 6 6 6 7 7 5 6 7 7 6 5 7 3 8 7 8 9 3 6 12 12
11 11 2 7 10 11 14 8 8 11 8 12 12 16 13 8 7 5 5 9 10 7 12 7 7 6 6 7 7 7 8 10 8 7 5 5 5 5 3 2 9 12 12 9 7 7 12 13 13
9 9 9 5 5 14 10 13 14 10 14 14 13 8 15 13 6 6 3 8 10 12 8 8 7 4 3 4 7 9 11 11 11 4 2 2 2 2 4 6 10 12 10 9 10 12 16 14 16
7 3 7 nan 14 14 13 15 16 16 10 1 8 15 19 14 7 7 4 8 5 3 8 9 2 4 7 6 4 3 1 3 5 3 5 9 3 1 9 12 10 11 11 12 16 17 18 18 20
6 10 13 20 nan 21 20 17 15 6 9 6 4 16 17 11 7 6 7 4 1 4 0 4 2 3 1 5 5 5 8 7 13 11 8 8 13 15 8 10 11 14 17 19 21 23 23 28 22
14 11 12 22 nan 21 14 14 9 7 6 6 18 14 13 9 5 3 4 3 4 2 2 2 11 14 9 13 11 9 6 7 6 11 9 5 8 10 11 12 15 17 20 19 22 23 28 22 23
14 18 16 17 nan nan 17 23 nan 14 18 8 13 16 12 7 6 5 4 6 6 1 2 7 6 6 8 8 13 12 6 5 3 5 5 7 13 12 14 10 8 11 9 16 16 20 17 20 21
22 15 22 17 nan 10 13 26 23 19 nan 6 13 14 13 5 4 1 3 6 6 3 3 5 5 7 7 15 13 13 7 7 2 5 18 8 10 8 12 15 13 14 10 12 15 16 18 18 17
19 12 19 15 14 nan 11 21 31 15 nan 16 10 11 11 7 3 2 4 5 3 4 7 6 4 4 7 12 15 8 9 5 10 3 8 18 12 17 16 19 10 18 14 15 15 17 17 17 16
13 16 21 19 17 nan nan nan 20 28 nan nan nan 7 5 3 2 2 2 3 4 4 7 7 5 1 4 9 9 12 5 5 5 3 7 12 16 22 27 24 17 13 14 15 16 18 20 17 15
5 12 13 18 12 16 nan nan nan 26 11 nan nan 4 3 4 3 3 3 4 5 6 6 5 2 2 4 7 11 13 10 6 12 7 6 10 14 19 24 19 17 14 17 14 18 19 17 15 13
nan 9 21 28 15 18 nan nan nan 32 27 10 2 2 2 3 2 3 4 3 4 6 5 5 2 2 7 11 13 18 12 11 11 13 8 7 11 15 18 16 12 19 14 14 18 18 16 18 11
nan 15 31 27 23 nan nan nan nan nan 36 24 9 3 2 5 7 5 4 4 6 5 5 3 2 6 13 10 16 14 11 11 7 16 10 7 9 12 21 15 16 28 12 13 17 20 19 16 18
nan 14 20 24 26 24 nan nan nan 16 23 30 20 26 6 5 4 7 5 5 6 5 2 2 6 6 11 11 9 11 11 10 9 10 8 9 10 11 19 17 7 37 15 18 15 15 15 10 11
nan 13 41 33 25 10 22 22 nan nan nan 31 27 nan 12 7 5 9 7 3 5 5 2 2 5 5 9 10 14 15 15 10 12 9 8 9 9 11 12 24 26 30 19 18 18 21 16 11 10
nan nan nan 36 20 16 27 30 nan nan nan nan nan 22 23 21 3 12 7 4 3 6 5 4 4 2 6 16 15 17 20 12 11 7 8 10 11 10 14 20 25 18 20 13 17 20 19 12 9
nan nan nan nan 5 22 10 15 31 19 15 nan nan nan 29 7 12 5 11 1 3 2 4 4 2 2 7 13 13 12 11 11 11 9 9 5 11 12 10 12 20 29 10 29 14 16 21 15 8
nan nan nan 15 8 11 26 nan 42 37 23 nan nan 20 nan nan 16 2 7 6 4 6 1 2 1 5 7 11 18 6 14 11 8 10 7 13 7 11 12 10 13 19 24 20 22 18 17 14 13
nan nan 13 7 4 7 nan nan 36 33 21 nan nan 12 12 nan 8 1 9 6 5 6 5 2 4 6 7 8 9 12 9 17 7 6 3 5 2 5 9 7 10 14 21 16 14 16 12 16 15
nan nan 10 7 10 9 nan nan nan 28 29 28 12 5 14 7 17 nan 13 7 7 3 10 5 7 4 6 6 8 11 13 11 9 7 5 4 2 3 4 5 6 7 10 16 16 13 15 12 14
nan nan 8 nan 12 23 6 12 nan nan 31 24 19 nan 8 14 10 14 16 10 11 2 6 5 9 5 5 6 8 9 8 10 10 6 8 6 6 5 10 3 6 5 9 10 12 11 9 9 9
nan nan nan nan 14 13 17 nan 22 nan 31 28 20 17 12 13 11 nan 10 12 17 11 6 5 11 6 5 4 8 7 7 10 9 7 4 7 7 8 10 5 3 5 5 8 11 7 11 11 9
nan 36 10 10 13 10 nan 13 nan nan 13 25 nan nan 11 9 14 10 14 20 19 10 9 6 9 9 7 6 7 7 6 6 8 11 8 10 13 7 12 7 4 2 2 3 6 7 6 7 8
nan nan 17 16 33 13 15 nan 27 23 18 28 nan nan nan 22 15 14 24 21 22 14 13 9 8 7 6 8 8 7 7 6 6 9 7 5 6 8 7 5 7 7 6 6 8 10 12 8 6
nan nan 29 13 20 26 nan nan 7 21 22 20 nan nan 27 34 13 24 22 24 20 19 19 11 10 7 6 8 8 7 7 7 7 6 5 5 6 7 6 6 4 4 6 7 6 4 9 6 5
Wind_Direction
24 52 120 97 87 86 nan nan 269 291 254 236 202 224 237 208 206 232 284 276 282 305 350 322 79 77 72 143 163 202 212 219 222 217 225 231 233 241 241 240 240 239 244 241 241 250 256 264 257
48 116 106 131 85 47 263 nan 283 262 261 248 276 233 238 241 257 265 259 305 304 2 319 357 67 56 70 97 149 191 208 212 221 223 223 231 230 222 244 235 241 248 248 246 242 245 254 243 262
26 nan 116 146 172 158 276 nan 264 266 290 255 219 208 205 270 286 277 292 314 256 214 237 231 31 355 142 144 134 197 197 218 215 221 222 226 233 233 241 241 246 248 250 256 254 262 244 167 83
23 50 82 194 127 234 270 267 285 295 232 241 284 247 264 235 273 287 324 271 284 239 244 248 258 243 291 259 171 183 208 210 204 209 221 227 230 235 244 246 249 250 255 265 268 253 216 67 106
14 52 123 143 211 236 230 274 281 277 262 252 257 284 263 253 281 298 298 257 244 277 281 264 260 266 268 255 246 224 213 205 226 216 216 221 225 231 237 248 261 257 253 252 174 101 70 63 59
112 45 98 184 207 218 228 244 275 254 257 263 275 288 270 287 302 314 287 286 260 254 261 267 255 265 255 253 242 231 217 214 216 208 208 213 211 240 272 262 239 187 182 117 99 84 55 50 49
24 56 279 227 258 226 205 231 233 258 264 277 292 285 291 314 303 295 247 271 261 205 258 284 278 257 243 231 240 236 236 228 225 214 207 192 193 184 148 143 124 136 119 111 111 76 58 63 68
113 105 6 222 214 243 200 203 204 213 261 283 288 302 317 293 315 279 261 247 274 262 226 229 275 296 324 223 239 251 245 232 222 219 220 328 219 221 117 108 121 122 115 106 88 74 59 70 67
335 4 60 nan 202 222 181 238 211 201 255 45 272 303 301 303 316 303 283 229 219 297 304 304 92 116 240 241 232 282 224 218 197 116 86 74 162 98 86 156 118 114 95 77 67 66 58 59 69
304 320 10 342 nan 184 182 206 230 256 262 255 321 289 298 311 340 340 326 284 6 210 276 332 309 242 277 238 156 112 77 136 149 163 170 175 166 157 159 123 87 73 67 58 66 69 67 63 71
233 258 292 308 nan 187 185 203 227 235 273 296 289 311 310 321 344 3 337 298 242 75 184 139 241 148 164 219 148 139 137 112 159 152 171 177 146 102 95 104 79 75 58 78 75 81 80 81 99
270 244 267 306 nan nan 197 167 nan 200 202 297 307 325 326 329 4 3 331 299 277 77 104 240 241 154 217 173 127 162 159 94 133 179 103 99 149 144 138 121 115 117 121 104 113 119 111 99 98
281 271 272 307 nan 22 239 186 183 200 nan 232 290 327 331 348 30 86 319 280 285 1 294 270 241 192 133 112 158 171 150 118 192 99 143 178 184 141 154 130 139 110 123 99 108 104 107 112 113
260 261 289 298 289 nan 264 200 163 202 nan 268 307 327 345 352 29 46 360 290 321 11 303 269 306 287 117 167 159 153 118 156 125 159 152 164 154 142 95 129 123 149 154 137 117 113 111 123 122
291 272 258 267 303 nan nan nan 187 160 nan nan nan 327 299 288 26 37 323 318 18 37 299 301 284 347 123 185 136 125 138 126 109 145 108 148 149 138 151 76 166 153 138 121 125 116 114 128 139
337 326 297 275 276 278 nan nan nan 147 169 nan nan 254 285 350 355 68 355 2 346 20 321 328 293 325 145 162 114 129 120 133 118 97 80 143 147 139 137 155 155 134 117 120 118 115 125 130 130
nan 287 204 267 257 276 nan nan nan 154 163 167 214 326 21 296 332 46 357 352 349 305 350 6 291 77 144 163 146 143 159 129 130 133 135 140 135 141 135 145 134 115 128 127 122 125 141 136 135
nan 207 268 266 264 nan nan nan nan nan 158 168 192 122 321 1 25 7 9 308 24 296 344 43 134 196 134 164 142 139 117 133 137 128 162 116 151 147 141 154 130 135 143 129 144 133 150 152 138
nan 251 272 259 270 290 nan nan nan 175 161 154 184 143 71 356 33 338 356 359 329 288 339 169 176 210 150 172 147 140 133 137 128 156 155 141 143 149 143 140 186 111 187 180 140 131 127 142 144
nan 261 244 263 277 274 289 276 nan nan nan 158 140 nan 120 8 147 327 311 75 330 291 25 272 227 143 135 157 164 154 159 151 148 155 138 136 130 139 144 143 166 173 189 178 154 151 150 167 155
nan nan nan 280 274 276 299 283 nan nan nan nan nan 155 162 138 331 275 332 354 102 308 35 8 299 115 127 153 166 168 165 159 138 167 124 119 126 133 163 151 165 140 181 221 171 171 170 176 184
nan nan nan nan 24 280 30 282 299 295 320 nan nan nan 144 56 119 320 306 14 292 259 108 333 0 164 137 137 172 161 143 137 139 144 150 140 129 136 146 165 165 158 205 208 201 200 173 181 176
nan nan nan 257 183 207 286 nan 291 302 310 nan nan 135 nan nan 146 286 298 339 320 284 195 4 130 171 156 139 146 144 122 156 159 173 197 141 135 131 137 156 163 166 171 199 193 201 194 180 184
nan nan 242 257 344 6 nan nan 287 302 317 nan nan 127 155 nan 168 102 192 293 296 305 260 60 269 162 168 152 153 134 151 162 168 165 177 104 100 110 130 149 163 171 176 189 190 202 205 208 206
nan nan 359 347 318 263 nan nan nan 300 286 326 320 178 159 187 158 nan 281 278 252 275 289 222 276 188 173 170 155 153 155 164 193 209 155 152 132 100 282 134 156 170 184 187 189 203 199 206 203
nan nan 171 nan 185 214 252 293 nan nan 275 324 291 nan 201 159 168 190 265 197 269 238 276 254 271 256 190 184 161 179 165 165 163 209 169 164 182 232 268 238 151 160 190 200 208 195 201 212 214
nan nan nan nan 337 223 315 nan 292 nan 270 304 314 316 305 169 162 nan 229 240 255 237 253 239 263 241 225 204 197 189 192 158 174 197 217 168 183 234 272 241 198 175 196 197 210 223 210 218 226
nan 183 167 257 263 200 nan 293 nan nan 308 279 nan nan 252 265 173 175 238 245 232 232 250 246 266 263 238 208 213 207 209 177 171 209 202 182 195 194 227 262 244 228 192 201 211 203 262 250 213
nan nan 88 236 244 223 196 nan 247 262 246 272 nan nan nan 245 277 194 223 250 240 223 242 255 258 275 244 227 229 215 224 227 202 193 190 180 188 219 205 199 203 200 209 205 212 177 185 193 241
nan nan 123 197 311 262 nan nan 81 254 262 273 nan nan 227 209 235 226 229 242 245 214 247 245 254 253 244 244 237 233 217 227 235 221 215 222 208 226 219 226 206 225 210 223 241 231 190 229 231